This demonstration page uses our WeatherBlox Daily Observations layout. Learn more.

Left ArrowRight Arrow

Hourly Observations for July 23, 2015

Temp ( °F °C ) Dew Point ( °F °C ) Humidity (%) Winds ( mph kmh ) Pressure ( in mb ) Visibility ( mi km ) Precip ( " mm )
12:53 am 00:53 Clear 85 29.4 58 14.4 40 40 SSE 14 22 29.78 1008 10 16 0.00 0.00
1:53 am 01:53 Clear 83 28.3 62 16.7 49 49 SSE 15 24 29.78 1008 10 16 0.00 0.00
2:53 am 02:53 Clear 82 27.8 63 17.2 53 53 SSE 14 22 29.78 1009 10 16 0.00 0.00
3:53 am 03:53 Clear 81 27.2 63 17.2 54 54 SSE 15 24 29.78 1008 10 16 0.00 0.00
4:53 am 04:53 Clear 79 26.1 63 17.2 58 58 SSE 9 15 29.79 1009 10 16 0.00 0.00
5:53 am 05:53 Clear 78 25.6 64 17.8 62 62 SE 9 15 29.78 1009 10 16 0.00 0.00
6:53 am 06:53 Clear 77 25 65 18.3 66 66 SE 13 20 29.79 1009 10 16 0.00 0.00
7:53 am 07:53 Sunny 78 25.6 65 18.3 64 64 SE 13 20 29.81 1010 10 16 0.00 0.00
8:53 am 08:53 Sunny 81 27.2 66 18.9 61 61 SSE 16 26 29.83 1010 10 16 0.00 0.00
9:53 am 09:53 Sunny 85 29.4 66 18.9 53 53 SSE 13 20 29.83 1010 10 16 0.00 0.00
10:53 am 10:53 Sunny 89 31.7 65 18.3 45 45 S 8 13 29.84 1011 10 16 0.00 0.00
11:53 am 11:53 Sunny 93 33.9 64 17.8 38 38 SSE 7 11 29.84 1010 10 16 0.00 0.00
12:53 pm 12:53 Sunny 98 36.7 61 16.1 29 29 S 9 15 29.81 1010 10 16 0.00 0.00
1:53 pm 13:53 Sunny 99 37.2 60 15.6 28 28 Calm 29.80 1009 10 16 0.00 0.00
2:53 pm 14:53 Sunny 100 37.8 59 15 26 26 SE 6 9 29.78 1008 10 16 0.00 0.00
3:53 pm 15:53 Sunny 100 37.8 59 15 26 26 SE 8 13 29.75 1008 10 16 0.00 0.00
4:53 pm 16:53 Sunny 103 39.4 58 14.4 23 23 undefined N/A 29.74 1007 10 16 0.00 0.00
5:53 pm 17:53 Partly Cloudy 103 39.4 58 14.4 23 23 ESE 8 13 29.73 1007 10 16 0.00 0.00
6:53 pm 18:53 Partly Cloudy 97 36.1 60 15.6 29 29 NW 13 20 29.73 1007 10 16 0.00 0.00
7:53 pm 19:53 Mostly Sunny 99 37.2 59 15 27 27 NNW 7 11 29.73 1007 10 16 0.00 0.00
8:53 pm 20:53 Mostly Cloudy 95 35 60 15.6 31 31 NNE 6 9 29.76 1008 10 16 0.00 0.00
9:53 pm 21:53 Clear 94 34.4 59 15 31 31 SE 8 13 29.78 1008 10 16 0.00 0.00
10:53 pm 22:53 Clear 92 33.3 59 15 33 33 SSE 13 20 29.80 1009 10 16 0.00 0.00
11:53 pm 23:53 Clear 89 31.7 59 15 36 36 SSE 12 19 29.83 1010 10 16 0.00 0.00

Powered by AerisWeather